Regional Weather Roundup
Issued by NWS Lake Charles, LA

Home | Current Version | Previous Version | Text Only | Print | Product List | Glossary On
Versions: 1 2 3 4 5 6 7 8 9 10 11 12 13 14 15 16 17 18 19 20 21 22 23 24 25 26 27 28 29 30 31 32 33 34 35 36 37 38 39 40 41 42 43 44 45 46 47 48 49 50
000
ASUS44 KLCH 300810
RWRLCH
RWRLCH
REGIONAL WEATHER ROUNDUP
NATIONAL WEATHER SERVICE LAKE CHARLES LA
300 AM CDT TUE JUN 30 2015

Note: "fair" indicates few or no clouds below 12,000 feet with no
significant weather and/or obstructions to visibility.


ACROSS SOUTHEAST TEXAS

CITY           SKY/WX    TMP DP  RH WIND       PRES   REMARKS
BEAUMONT       CLOUDY    78  76  93 MISG      30.03R
BEAUMONT CITY    N/A     77  76  95 CALM      30.04R
ORANGE         CLOUDY    77  77 100 CALM      30.05S
JASPER         PTCLDY    78  76  94 CALM      30.06S FOG
$$

ACROSS CENTRAL LOUISIANA

CITY           SKY/WX    TMP DP  RH WIND       PRES   REMARKS
LEESVILLE      PTCLDY    77  76  95 S7        30.01F
FULLERTON        N/A     79  75  87 VRB3      30.01S
ALEXANDRIA INT CLOUDY    73  71  93 S6        30.00F
ESLER FIELD    MOCLDY    73  70  90 SW7       30.01F
DERIDDER       CLOUDY    78  76  95 S5        30.05F
OAKDALE        CLOUDY    76  75  96 CALM      30.04S FOG
OPELOUSAS        N/A     72  69  90 CALM      30.04F
$$

ACROSS SOUTHWEST AND SOUTH CENTRAL LOUISIANA

CITY           SKY/WX    TMP DP  RH WIND       PRES   REMARKS
SULPHUR        CLOUDY    80  77  91 CALM      30.04S
LAKE CHARLES   CLOUDY    81  76  84 CALM      30.04R
CHENNAULT INT  CLOUDY    78  77  95 CALM      30.05R
CAMERON PHI    MOSUNNY   82  77  83 SW14      30.06R
DEQUINCY       CLOUDY    77  77 100 CALM      30.04S
JENNINGS         N/A     77  75  94 CALM      30.05R
LAFAYETTE      PTCLDY    76  74  93 NE3       30.04F
NEW IBERIA     MOCLDY    78  75  90 E5        30.04F
ABBEVILLE        N/A     76  75  98 S3        30.04F
PATTERSON      CLOUDY    77  73  88 CALM      30.06F
SALT POINT       N/A     83  76  79 VRB6      30.03F
$$

SELECTED SITES ACROSS THE REGION

CITY           SKY/WX    TMP DP  RH WIND       PRES   REMARKS
HOUSTON BUSH   MOCLDY    80  75  84 SW6       30.01F
HOUSTON HOBBY  CLOUDY    80  75  84 S7        30.00F
GALVESTON      CLOUDY    83  79  88 S14       30.02F
COLLEGE STAT   MOCLDY    78  75  90 S5        30.02R
CONROE         CLOUDY    79  74  84 SW3       30.02R
HUNTSVILLE     MOCLDY    79  75  87 SW6       30.02S
LUFKIN         MOCLDY    75  70  84 S3        30.02F
SHREVEPORT     MOCLDY    76  71  85 S9        29.97R
MONROE         PTCLDY    77  73  87 W9        29.99R
NATCHEZ MS     MOCLDY    70  66  88 S3        30.00S
BATON ROUGE    PTCLDY    72  68  87 S5        30.02F
N.O. INTL ARPT CLOUDY    78  70  76 SW7       30.04F
SLIDELL        MOCLDY    79  69  71 VRB3      30.01F
$$

MARINE REPORTS

STATION/POSITION TIME  TEMP    WIND        PRES    VSBY  WAVE
                       AIR SEA DIR/SP/G                  HT/PER
                 (UTC) (F)     (DEG/KT/KT) (MB)    (MI)  (FT/S)
BUOY 30 S HIGH I 0750   84 83  190/ 12/ 16 1015.8F         3/ 5
SEA RIM ST PARK  0700   82     210/ 12/ 15 1017.2F
PORT ARTHUR      0700      84  210/  5/  6 1016.8S
SABINE PASS N    0700   81 84  210/  7/ 11 1016.8F
TEXAS POINT      NOT AVBL
CALCASIEU PASS   0700   83 85  220/ 14/ 16   N/A
LK CHARLES BEACH 0700   81 86                N/A
MARSH ISLAND     0700   84     230/  4/  9   N/A           0
FRESH WATER LOCK 0700   82 85  200/  5/  6 1017.4S
AMERADA PASS     0700   81 83   CALM  /  3 1017.8F
$$


USA.gov is the U.S. government's official web portal to all federal, state and local government web resources and services.